Regional Weather Roundup
Issued by NWS

Home | Current Version | Previous Version | Text Only | Print | Product List | Glossary Off
Versions: 1 2 3 4 5 6 7 8 9 10 11 12 13 14 15 16 17 18 19 20 21 22 23 24 25 26 27 28

000
ASUS45 KTFX 011410
RWRMT
MONTANA REGIONAL WEATHER ROUNDUP
NATIONAL WEATHER SERVICE GREAT FALLS MT
800 AM MDT SUN MAY 01 2016

NOTE: "FAIR" INDICATES FEW OR NO CLOUDS BELOW 12000 FEET WITH NO
SIGNIFICANT WEATHER AND/OR OBSTRUCTIONS TO VISIBILITY.

MTZ001>007-043-011500-
WEST OF THE DIVIDE

CITY           SKY/WX    TMP DP  RH WIND       PRES   REMARKS
KALISPELL      SUNNY     45  37  73 VRB3      30.31R
MISSOULA       SUNNY     43  36  76 N3        30.31R
BUTTE          SUNNY     30  27  88 SE3       30.31R
MULLAN PASS    SUNNY     39  29  67 E5        30.27S
ANACONDA         N/A     39  32  75 CALM      30.31S
DEER LODGE       N/A     39  32  75 CALM      30.33R
EUREKA           N/A     37  34  87 CALM      30.36S
HAMILTON         N/A     41  36  81 CALM      30.28R
LIBBY            N/A     39  34  81 CALM      30.34R
PLAINS           N/A     37  33  85 CALM      30.30R VSB 0
$$

MTZ008-052>055-011500-
SOUTHWEST MONTANA

CITY           SKY/WX    TMP DP  RH WIND       PRES   REMARKS
BOZEMAN        SUNNY     38  32  79 NW5       30.32R
DILLON         SUNNY     38  30  73 CALM      30.29R
ENNIS          SUNNY     36  32  87 SE6       30.35S WCI  31
THREE FORKS      N/A     36  36 100 CALM      30.28R
TWIN BRIDGES     N/A     40  28  62 N12       30.24R
$$

MTZ009-010-012-014-046-048-049-054-011500-
EAST SLOPES AND CENTRAL MONTANA

CITY           SKY/WX    TMP DP  RH WIND       PRES   REMARKS
CUT BANK       SUNNY     39  35  86 CALM      30.34R
GREAT FALLS    SUNNY     37  33  85 W5        30.34R
HELENA         SUNNY     38  33  82 CALM      30.34R
CHOTEAU          N/A     39  36  87 CALM      30.34S
CONRAD           N/A     37  37 100 CALM      30.32S
$$

MTZ011-013-016-021-045-047-050-051-011500-
NORTH CENTRAL MONTANA

CITY           SKY/WX    TMP DP  RH WIND       PRES   REMARKS
HAVRE          MOSUNNY   42  38  85 SW5       30.35S
LEWISTOWN      SUNNY     40  32  73 SE5       30.35R
N BAR RANCH      N/A     41  34  75 CALM      30.37S
CHINOOK          N/A     43  37  81 CALM      30.36S
$$

MTZ017>020-022>027-061-062-011500-
NORTHEAST MONTANA

CITY           SKY/WX    TMP DP  RH WIND       PRES   REMARKS
GLASGOW        CLOUDY    44  33  65 CALM      30.35R
JORDAN           N/A     38  34  85 W5        30.35R
SIDNEY         SUNNY     39  34  81 S5        30.36S
WOLF POINT     SUNNY     41  34  76 CALM      30.36S
PLENTYWOOD       N/A     45  28  53 CALM      30.35S
POPLAR           N/A     39  30  70 CALM      30.37R
SCOBEY           N/A     37  27  68 CALM      30.31S
$$

MTZ028>42-056>058-011500-
SOUTHCENTRAL AND SOUTHEAST MONTANA

CITY           SKY/WX    TMP DP  RH WIND       PRES   REMARKS
BAKER          SUNNY     41  32  70 VRB3      30.36R
BILLINGS       MOSUNNY   42  35  76 SW8       30.35R
LIVINGSTON     CLOUDY    40  33  76 CALM      30.33R
MILES CITY     SUNNY     42  35  76 CALM      30.36R
EKALAKA          N/A     44  32  63 SE2       30.29R
FORSYTH          N/A     45  37  76 E5        30.36R
LAUREL           N/A     42  32  68 CALM      30.29R
ROUNDUP          N/A     45  34  65 CALM      30.23S
$$

REGIONAL REPORTS...DAKOTAS

CITY           SKY/WX    TMP DP  RH WIND       PRES   REMARKS
WILLISTON      SUNNY     43  31  62 NE5       30.36R
MINOT          SUNNY     50  30  46 VRB3      30.34S
DICKINSON      SUNNY     43  30  60 NW5       30.32R
BEACH            N/A     45  32  61 CALM      30.37F
CROSBY           N/A     48  32  53 CALM      30.37S
WATFORD CITY     N/A     39  34  81 CALM      30.35S
BISMARCK       SUNNY     44  33  65 CALM      30.34S
GRAND FORKS    SUNNY     47  30  51 NE3       30.32S
FARGO          SUNNY     49  30  48 N5        30.30S
BUFFALO SD       N/A     45  32  60 NW6       30.27S
RAPID CITY     SUNNY     45  31  58 N15       30.31R
$$

REGIONAL REPORTS...WYOMING/IDAHO/WASHINGTON

CITY           SKY/WX    TMP DP  RH WIND       PRES   REMARKS
GILLETTE       SUNNY     41  32  70 CALM      30.33R
SHERIDAN       SUNNY     44  36  73 CALM      30.35R
BUFFALO WY       N/A    N/A N/A N/A MISG      30.35R
CODY           SUNNY     43  34  70 NE3       30.33S
YELLOWSTONE LA   N/A     33  19  56 VRB3      30.31S
IDAHO FALLS    SUNNY     38  33  82 N3        30.23R
SALMON         SUNNY     39  34  81 CALM      30.26S
BOISE          SUNNY     45  37  73 CALM      30.15R
SPOKANE        SUNNY     47  41  80 NE6       30.25R
$$

REGIONAL REPORTS...ALBERTA

CITY           SKY/WX    TMP DP  RH WIND       PRES   REMARKS
EDMONTON       SUNNY     50  32  50 SW8       30.21S
CALGARY        MOSUNNY   43  32  65 S5        30.28S
LETHBRIDGE     MOSUNNY   45  37  76 SW8       30.31S
WATERTON GATE    N/A     41  32  70 S8          N/A
CARDSTON         N/A     43  32  65 SW3         N/A
MILK RIVER       N/A     39  36  87 W5          N/A
ONEFOUR          N/A     46  36  66 E6          N/A
$$

REGIONAL REPORTS...SASKATCHEWAN

CITY           SKY/WX    TMP DP  RH WIND       PRES   REMARKS
SWIFT CURRENT  SUNNY     50  37  62 SW8G32    30.30S
REGINA         MOSUNNY   48  27  43 S8        30.31F
SASKATOON      PTSUNNY   54  34  47 SW6       30.27S
CYPRESS HILLS    N/A     48  30  49 S6          N/A
VAL MARIE        N/A     43  32  65 CALM        N/A
ROCKGLEN         N/A     48  30  49 SW6         N/A
$$




USA.gov is the U.S. government's official web portal to all federal, state and local government web resources and services.